Location: Newark
(30.1000°N, 109.4667°E)
Time: 01:51:35
(UTC+00:00)

A-11 Canister half - Pass Details

Date: 19 February 2020
Orbit: 1516 x 1683 km, 47.2° (Epoch: 08 April)

Event Time Altitude Azimuth Distance (km) Brightness Sun altitude
Rises 13:09:38 0° 301° (WNW) 4,827 12.5 -34.5°
Reaches altitude 10° 13:13:25 10° 312° (NW) 3,814 11.6 -35.3°
Maximum altitude 13:21:34 30° 10° (N) 2,543 10.0 -37.0°
Enters shadow 13:21:47 30° 13° (NNE) 2,543 10.0 -37.1°
